IBE559 LEMD-LPMA

Flight info

Callsign IBE559
Flight time 2h 6m
Altitude 35000
Route CCS DCT ELVAR DCT NARTA DCT RAKUN
Aircraft A320/M-SDE3FGHIRWY/LB1

Departure

Time 2026-05-01 10:45
Airport Adolfo Suárez Madrid–Barajas Airport (LEMD)

Arrival

Time 2026-05-01 12:51
Airport Cristiano Ronaldo International Airport (LPMA)
Time Latitude Longitude Altitude Speed Heading
2026-05-01 10:31 40.49348 -3.58989 1989 ft 0 kts 269°
2026-05-01 10:37 40.49348 -3.58988 1989 ft 1 kts 269°
2026-05-01 10:38 40.49350 -3.58956 1989 ft 4 kts 259°
2026-05-01 10:38 40.49357 -3.58922 1989 ft 4 kts 238°
2026-05-01 10:38 40.49375 -3.58902 1987 ft 3 kts 182°
2026-05-01 10:38 40.49382 -3.58901 1988 ft 0 kts 180°
2026-05-01 10:41 40.49381 -3.58901 1988 ft 1 kts 180°
2026-05-01 10:41 40.49323 -3.58902 1989 ft 14 kts 181°
2026-05-01 10:41 40.49243 -3.58717 1990 ft 14 kts 91°
2026-05-01 10:42 40.49242 -3.58566 1991 ft 17 kts 90°
2026-05-01 10:42 40.49244 -3.58403 1991 ft 18 kts 90°
2026-05-01 10:42 40.49243 -3.58223 1992 ft 20 kts 90°
2026-05-01 10:42 40.49245 -3.58040 1992 ft 20 kts 90°
2026-05-01 10:43 40.49245 -3.57855 1993 ft 20 kts 90°
2026-05-01 10:43 40.49245 -3.57691 1994 ft 15 kts 88°
2026-05-01 10:43 40.49274 -3.57559 1995 ft 15 kts 59°
2026-05-01 10:43 40.49350 -3.57471 1995 ft 15 kts 24°
2026-05-01 10:44 40.49421 -3.57462 1995 ft 0 kts 359°
2026-05-01 10:44 40.49433 -3.57462 1995 ft 10 kts
2026-05-01 10:44 40.49779 -3.57463 1995 ft 90 kts 360°
2026-05-01 10:45 40.50647 -3.57468 1997 ft 157 kts 360°
2026-05-01 10:45 40.51880 -3.57490 2285 ft 188 kts 358°
2026-05-01 10:45 40.53252 -3.57605 2916 ft 207 kts 355°
2026-05-01 10:45 40.54739 -3.57823 3687 ft 221 kts 352°
2026-05-01 10:46 40.56224 -3.58107 4510 ft 212 kts 350°
2026-05-01 10:46 40.57650 -3.58428 5279 ft 205 kts 349°
2026-05-01 10:46 40.58984 -3.58695 6093 ft 190 kts
2026-05-01 10:46 40.60257 -3.58104 6402 ft 206 kts 31°
2026-05-01 10:47 40.61562 -3.57106 6605 ft 228 kts 31°
2026-05-01 10:47 40.62989 -3.56012 6852 ft 246 kts 30°
2026-05-01 10:47 40.64519 -3.54923 7371 ft 253 kts 22°
2026-05-01 10:47 40.66161 -3.54061 7986 ft 255 kts 15°
2026-05-01 10:48 40.67915 -3.53819 8578 ft 256 kts 346°
2026-05-01 10:48 40.69515 -3.54787 9183 ft 254 kts 318°
2026-05-01 10:48 40.70658 -3.56569 9662 ft 260 kts 294°
2026-05-01 10:48 40.71063 -3.58053 10015 ft 261 kts 279°
2026-05-01 10:49 40.71202 -3.60424 10600 ft 261 kts 264°
2026-05-01 10:49 40.70826 -3.62755 11178 ft 261 kts 248°
2026-05-01 10:49 40.69953 -3.64859 11750 ft 264 kts 232°
2026-05-01 10:49 40.68796 -3.66747 12328 ft 266 kts 231°
2026-05-01 10:50 40.67626 -3.68648 12910 ft 268 kts 231°
2026-05-01 10:50 40.66447 -3.70569 13464 ft 271 kts 231°
2026-05-01 10:50 40.65373 -3.72621 13994 ft 274 kts 243°
2026-05-01 10:50 40.64700 -3.74999 14320 ft 286 kts 257°
2026-05-01 10:51 40.64491 -3.77688 14446 ft 306 kts 268°
2026-05-01 10:51 40.64431 -3.80586 14570 ft 326 kts 268°
2026-05-01 10:51 40.64363 -3.83655 14691 ft 345 kts 268°
2026-05-01 10:51 40.64290 -3.86890 14808 ft 362 kts 268°
2026-05-01 10:52 40.64212 -3.90280 14927 ft 379 kts 268°
2026-05-01 10:52 40.64129 -3.93806 15190 ft 389 kts 268°
2026-05-01 10:52 40.64039 -3.97385 15670 ft 394 kts 267°
2026-05-01 10:52 40.63947 -4.00998 16191 ft 397 kts 267°
2026-05-01 10:53 40.63854 -4.04639 16718 ft 399 kts 267°
2026-05-01 10:53 40.63759 -4.08305 17220 ft 402 kts 267°
2026-05-01 10:53 40.63662 -4.11995 17726 ft 405 kts 267°
2026-05-01 10:53 40.63564 -4.15712 18198 ft 407 kts 267°
2026-05-01 10:54 40.63463 -4.19451 18643 ft 410 kts 267°
2026-05-01 10:54 40.63359 -4.23206 19062 ft 412 kts 267°
2026-05-01 10:54 40.63255 -4.26986 19487 ft 414 kts 267°
2026-05-01 10:54 40.63152 -4.30781 19897 ft 416 kts 267°
2026-05-01 10:55 40.63049 -4.34597 20315 ft 418 kts 267°
2026-05-01 10:55 40.62945 -4.38433 20696 ft 420 kts 267°
2026-05-01 10:55 40.62836 -4.42281 21085 ft 422 kts 267°
2026-05-01 10:55 40.62722 -4.46150 21469 ft 424 kts 267°
2026-05-01 10:56 40.62535 -4.50030 21827 ft 426 kts 262°
2026-05-01 10:56 40.61899 -4.53841 22185 ft 427 kts 252°
2026-05-01 10:56 40.60771 -4.57457 22510 ft 429 kts 243°
2026-05-01 10:56 40.59183 -4.60785 22852 ft 431 kts 234°
2026-05-01 10:57 40.57384 -4.63951 23188 ft 433 kts 234°
2026-05-01 10:57 40.55575 -4.67130 23510 ft 435 kts 234°
2026-05-01 10:57 40.53759 -4.70314 23803 ft 437 kts 234°
2026-05-01 10:57 40.51933 -4.73517 24066 ft 438 kts 234°
2026-05-01 10:58 40.50102 -4.76726 24326 ft 439 kts 234°
2026-05-01 10:58 40.48270 -4.79937 24583 ft 440 kts 234°
2026-05-01 10:58 40.46429 -4.83164 24840 ft 441 kts 234°
2026-05-01 10:58 40.44587 -4.86393 25086 ft 442 kts 234°
2026-05-01 10:59 40.42738 -4.89627 25319 ft 443 kts 234°
2026-05-01 10:59 40.40883 -4.92867 25554 ft 444 kts 234°
2026-05-01 10:59 40.39026 -4.96104 25786 ft 445 kts 233°
2026-05-01 10:59 40.37156 -4.99357 26001 ft 446 kts 233°
2026-05-01 11:00 40.35285 -5.02607 26217 ft 447 kts 233°
2026-05-01 11:00 40.33414 -5.05859 26420 ft 448 kts 233°
2026-05-01 11:00 40.31535 -5.09125 26622 ft 448 kts 233°
2026-05-01 11:00 40.29663 -5.12376 26902 ft 446 kts 233°
2026-05-01 11:01 40.27794 -5.15612 27193 ft 445 kts 233°
2026-05-01 11:01 40.25925 -5.18844 27469 ft 444 kts 233°
2026-05-01 11:01 40.24064 -5.22064 27758 ft 443 kts 233°
2026-05-01 11:01 40.22206 -5.25274 28042 ft 442 kts 233°
2026-05-01 11:02 40.20351 -5.28477 28350 ft 441 kts 233°
2026-05-01 11:02 40.18500 -5.31666 28664 ft 440 kts 233°
2026-05-01 11:02 40.16653 -5.34848 28964 ft 438 kts 233°
2026-05-01 11:02 40.14812 -5.38015 29263 ft 437 kts 233°
2026-05-01 11:03 40.12975 -5.41171 29549 ft 436 kts 233°
2026-05-01 11:03 40.11140 -5.44323 29861 ft 434 kts 232°
2026-05-01 11:03 40.09315 -5.47455 30165 ft 433 kts 232°
2026-05-01 11:03 40.07492 -5.50583 30417 ft 432 kts 232°
2026-05-01 11:04 40.05672 -5.53703 30645 ft 432 kts 232°
2026-05-01 11:04 40.03852 -5.56816 30862 ft 431 kts 232°
2026-05-01 11:04 40.02029 -5.59925 31071 ft 431 kts 232°
2026-05-01 11:04 40.00206 -5.63033 31281 ft 431 kts 232°
2026-05-01 11:05 39.98387 -5.66133 31488 ft 431 kts 232°
2026-05-01 11:05 39.96562 -5.69240 31700 ft 431 kts 232°
2026-05-01 11:05 39.94742 -5.72339 31909 ft 431 kts 232°
2026-05-01 11:05 39.92922 -5.75439 32118 ft 430 kts 232°
2026-05-01 11:06 39.91100 -5.78536 32337 ft 430 kts 232°
2026-05-01 11:06 39.89278 -5.81624 32547 ft 430 kts 232°
2026-05-01 11:06 39.87455 -5.84707 32758 ft 430 kts 232°
2026-05-01 11:07 39.83807 -5.90871 33164 ft 429 kts 232°
2026-05-01 11:07 39.81986 -5.93949 33378 ft 429 kts 232°
2026-05-01 11:07 39.80168 -5.97023 33567 ft 429 kts 232°
2026-05-01 11:07 39.78349 -6.00101 33780 ft 429 kts 232°
2026-05-01 11:08 39.76528 -6.03175 33994 ft 429 kts 232°
2026-05-01 11:08 39.74707 -6.06239 34190 ft 428 kts 232°
2026-05-01 11:08 39.71067 -6.12357 34553 ft 428 kts 232°
2026-05-01 11:09 39.69247 -6.15415 34734 ft 427 kts 232°
2026-05-01 11:09 39.67430 -6.18463 34921 ft 426 kts 232°
2026-05-01 11:09 39.65615 -6.21508 35098 ft 426 kts 232°
2026-05-01 11:10 39.60143 -6.30655 35161 ft 429 kts 232°
2026-05-01 11:10 39.56482 -6.36761 35164 ft 429 kts 231°
2026-05-01 11:11 39.52821 -6.42866 35149 ft 429 kts 234°
2026-05-01 11:11 39.49784 -6.49519 35151 ft 430 kts 242°
2026-05-01 11:12 39.47263 -6.56543 35160 ft 430 kts 244°
2026-05-01 11:12 39.44764 -6.63580 35159 ft 430 kts 243°
2026-05-01 11:13 39.42130 -6.70533 35168 ft 430 kts 242°
2026-05-01 11:13 39.39429 -6.77437 35168 ft 430 kts 242°
2026-05-01 11:14 39.36736 -6.84335 35166 ft 430 kts 242°
2026-05-01 11:14 39.34057 -6.91242 35168 ft 430 kts 242°
2026-05-01 11:15 39.31378 -6.98151 35169 ft 430 kts 242°
2026-05-01 11:15 39.28697 -7.05054 35173 ft 430 kts 242°
2026-05-01 11:16 39.26007 -7.11951 35174 ft 430 kts 242°
2026-05-01 11:16 39.23310 -7.18834 35169 ft 430 kts 242°
2026-05-01 11:17 39.20257 -7.25424 35173 ft 428 kts 234°
2026-05-01 11:17 39.16822 -7.31700 35181 ft 428 kts 234°
2026-05-01 11:18 39.13389 -7.37956 35173 ft 428 kts 234°
2026-05-01 11:18 39.09958 -7.44205 35177 ft 427 kts 234°
2026-05-01 11:19 39.06524 -7.50447 35182 ft 427 kts 234°
2026-05-01 11:19 39.03093 -7.56668 35181 ft 426 kts 234°
2026-05-01 11:20 38.99661 -7.62880 35184 ft 426 kts 234°
2026-05-01 11:20 38.96234 -7.69080 35181 ft 425 kts 234°
2026-05-01 11:21 38.92802 -7.75270 35183 ft 425 kts 234°
2026-05-01 11:21 38.89372 -7.81440 35177 ft 424 kts 234°
2026-05-01 11:22 38.85940 -7.87603 35181 ft 424 kts 234°
2026-05-01 11:22 38.82516 -7.93755 35180 ft 424 kts 234°
2026-05-01 11:23 38.79089 -7.99893 35182 ft 423 kts 234°
2026-05-01 11:23 38.75658 -8.06018 35184 ft 423 kts 234°
2026-05-01 11:24 38.72225 -8.12132 35190 ft 422 kts 234°
2026-05-01 11:25 38.67088 -8.21279 35186 ft 422 kts 234°
2026-05-01 11:25 38.61943 -8.30407 35188 ft 421 kts 234°
2026-05-01 11:26 38.56804 -8.39485 35187 ft 420 kts 234°
2026-05-01 11:27 38.53370 -8.45537 35194 ft 420 kts 234°
2026-05-01 11:27 38.49946 -8.51572 35190 ft 419 kts 234°
2026-05-01 11:28 38.46524 -8.57596 35199 ft 419 kts 234°
2026-05-01 11:28 38.43106 -8.63611 35195 ft 418 kts 234°
2026-05-01 11:29 38.37971 -8.72603 35201 ft 418 kts 234°
2026-05-01 11:30 38.33391 -8.80591 35201 ft 417 kts 234°
2026-05-01 11:30 38.29996 -8.86506 35212 ft 416 kts 234°
2026-05-01 11:31 38.26579 -8.92445 35202 ft 416 kts 234°
2026-05-01 11:31 38.23166 -8.98375 35208 ft 415 kts 234°
2026-05-01 11:32 38.19757 -9.04290 35209 ft 414 kts 234°
2026-05-01 11:32 38.16342 -9.10190 35212 ft 414 kts 234°
2026-05-01 11:33 38.12942 -9.16068 35212 ft 413 kts 234°
2026-05-01 11:33 38.09542 -9.21946 35211 ft 412 kts 234°
2026-05-01 11:34 38.06146 -9.27797 35210 ft 411 kts 234°
2026-05-01 11:34 38.02743 -9.33626 35213 ft 411 kts 234°
2026-05-01 11:35 37.99345 -9.39435 35212 ft 410 kts 234°
2026-05-01 11:35 37.95955 -9.45239 35214 ft 409 kts 234°
2026-05-01 11:36 37.92569 -9.51033 35214 ft 409 kts 234°
2026-05-01 11:36 37.89185 -9.56805 35210 ft 408 kts 234°
2026-05-01 11:37 37.85800 -9.62568 35205 ft 407 kts 234°
2026-05-01 11:37 37.82420 -9.68315 35212 ft 407 kts 234°
2026-05-01 11:38 37.79046 -9.74053 35208 ft 406 kts 234°
2026-05-01 11:38 37.75667 -9.79775 35209 ft 406 kts 234°
2026-05-01 11:39 37.72287 -9.85475 35204 ft 405 kts 234°
2026-05-01 11:39 37.68890 -9.91210 35205 ft 405 kts 234°
2026-05-01 11:40 37.65545 -9.96859 35204 ft 404 kts 234°
2026-05-01 11:40 37.62168 -10.02531 35204 ft 404 kts 234°
2026-05-01 11:41 37.58793 -10.08190 35200 ft 403 kts 234°
2026-05-01 11:41 37.55422 -10.13842 35201 ft 403 kts 234°
2026-05-01 11:42 37.52056 -10.19483 35199 ft 403 kts 234°
2026-05-01 11:42 37.48688 -10.25111 35201 ft 402 kts 234°
2026-05-01 11:43 37.45313 -10.30727 35195 ft 402 kts 234°
2026-05-01 11:43 37.41944 -10.36340 35197 ft 402 kts 234°
2026-05-01 11:44 37.36892 -10.44740 35190 ft 401 kts 234°
2026-05-01 11:44 37.33528 -10.50326 35189 ft 401 kts 234°
2026-05-01 11:45 37.30158 -10.55912 35188 ft 401 kts 234°
2026-05-01 11:45 37.26789 -10.61477 35192 ft 401 kts 234°
2026-05-01 11:46 37.23412 -10.67043 35184 ft 400 kts 234°
2026-05-01 11:46 37.20038 -10.72596 35185 ft 400 kts 234°
2026-05-01 11:47 37.16658 -10.78144 35180 ft 400 kts 234°
2026-05-01 11:47 37.13285 -10.83688 35176 ft 400 kts 234°
2026-05-01 11:48 37.09909 -10.89233 35176 ft 400 kts 234°
2026-05-01 11:48 37.06527 -10.94756 35171 ft 400 kts 234°
2026-05-01 11:49 37.03141 -11.00281 35179 ft 400 kts 234°
2026-05-01 11:49 36.99765 -11.05801 35183 ft 400 kts 234°
2026-05-01 11:50 36.96386 -11.11319 35179 ft 399 kts 234°
2026-05-01 11:50 36.92999 -11.16819 35181 ft 399 kts 234°
2026-05-01 11:51 36.89604 -11.22313 35177 ft 399 kts 234°
2026-05-01 11:51 36.86215 -11.27797 35180 ft 399 kts 234°
2026-05-01 11:52 36.82840 -11.33266 35173 ft 395 kts 235°
2026-05-01 11:52 36.79488 -11.38684 35192 ft 393 kts 235°
2026-05-01 11:53 36.76145 -11.44076 35197 ft 392 kts 234°
2026-05-01 11:53 36.72802 -11.49451 35198 ft 392 kts 234°
2026-05-01 11:54 36.69462 -11.54810 35194 ft 391 kts 235°
2026-05-01 11:54 36.66129 -11.60173 35188 ft 391 kts 235°
2026-05-01 11:55 36.62798 -11.65531 35187 ft 391 kts 235°
2026-05-01 11:55 36.59453 -11.70869 35186 ft 391 kts 234°
2026-05-01 11:56 36.56103 -11.76203 35183 ft 391 kts 234°
2026-05-01 11:56 36.52757 -11.81542 35179 ft 391 kts 234°
2026-05-01 11:57 36.49408 -11.86869 35178 ft 391 kts 234°
2026-05-01 11:57 36.46057 -11.92198 35179 ft 391 kts 234°
2026-05-01 11:58 36.42706 -11.97519 35177 ft 391 kts 234°
2026-05-01 11:59 36.37671 -12.05501 35175 ft 392 kts 234°
2026-05-01 11:59 36.34304 -12.10817 35174 ft 392 kts 234°
2026-05-01 12:00 36.29254 -12.18789 35172 ft 392 kts 234°
2026-05-01 12:01 36.24187 -12.26748 35171 ft 392 kts 234°
2026-05-01 12:01 36.20812 -12.32056 35173 ft 392 kts 234°
2026-05-01 12:02 36.17438 -12.37366 35175 ft 392 kts 234°
2026-05-01 12:02 36.14051 -12.42664 35176 ft 392 kts 234°
2026-05-01 12:03 36.10663 -12.47958 35173 ft 392 kts 234°
2026-05-01 12:03 36.07250 -12.53279 35173 ft 392 kts 234°
2026-05-01 12:04 36.03780 -12.58488 35173 ft 393 kts 232°
2026-05-01 12:04 36.00078 -12.63471 35171 ft 394 kts 230°
2026-05-01 12:05 35.96318 -12.68406 35167 ft 395 kts 230°
2026-05-01 12:05 35.90735 -12.75884 35162 ft 395 kts 231°
2026-05-01 12:06 35.87030 -12.80881 35161 ft 395 kts 231°
2026-05-01 12:06 35.83317 -12.85876 35164 ft 395 kts 231°
2026-05-01 12:07 35.79621 -12.90830 35163 ft 395 kts 231°
2026-05-01 12:07 35.75874 -12.95843 35166 ft 396 kts 231°
2026-05-01 12:08 35.72138 -13.00818 35165 ft 396 kts 231°
2026-05-01 12:08 35.68433 -13.05770 35163 ft 396 kts 231°
2026-05-01 12:09 35.65309 -13.09939 35162 ft 396 kts 231°
2026-05-01 12:09 35.60957 -13.15712 35164 ft 396 kts 231°
2026-05-01 12:10 35.55953 -13.22361 35164 ft 396 kts 231°
2026-05-01 12:11 35.50334 -13.29814 35161 ft 396 kts 231°
2026-05-01 12:11 35.46585 -13.34773 35165 ft 396 kts 231°
2026-05-01 12:12 35.42829 -13.39723 35162 ft 396 kts 231°
2026-05-01 12:12 35.39071 -13.44673 35169 ft 396 kts 231°
2026-05-01 12:13 35.35312 -13.49622 35177 ft 397 kts 231°
2026-05-01 12:13 35.31561 -13.54566 35165 ft 396 kts 231°
2026-05-01 12:14 35.27801 -13.59508 35160 ft 397 kts 231°
2026-05-01 12:14 35.24037 -13.64437 35175 ft 397 kts 231°
2026-05-01 12:15 35.20266 -13.69364 35158 ft 397 kts 231°
2026-05-01 12:15 35.16494 -13.74291 35169 ft 397 kts 231°
2026-05-01 12:16 35.12725 -13.79210 35166 ft 397 kts 231°
2026-05-01 12:16 35.08961 -13.84130 35167 ft 397 kts 231°
2026-05-01 12:17 35.05188 -13.89050 35164 ft 397 kts 231°
2026-05-01 12:17 35.01410 -13.93948 35166 ft 397 kts 231°
2026-05-01 12:18 34.97626 -13.98843 35161 ft 396 kts 231°
2026-05-01 12:18 34.93852 -14.03741 35165 ft 396 kts 231°
2026-05-01 12:19 34.90073 -14.08638 35166 ft 396 kts 231°
2026-05-01 12:19 34.86295 -14.13525 35164 ft 396 kts 231°
2026-05-01 12:20 34.82514 -14.18403 35168 ft 396 kts 231°
2026-05-01 12:20 34.78731 -14.23275 35168 ft 396 kts 231°
2026-05-01 12:21 34.74948 -14.28142 35170 ft 396 kts 231°
2026-05-01 12:21 34.71160 -14.33012 35166 ft 396 kts 231°
2026-05-01 12:22 34.67366 -14.37870 35168 ft 396 kts 231°
2026-05-01 12:22 34.63579 -14.42723 35167 ft 396 kts 231°
2026-05-01 12:23 34.59789 -14.47581 35167 ft 396 kts 231°
2026-05-01 12:23 34.55991 -14.52432 35163 ft 396 kts 231°
2026-05-01 12:24 34.52193 -14.57274 35162 ft 396 kts 231°
2026-05-01 12:24 34.48390 -14.62114 35162 ft 397 kts 231°
2026-05-01 12:25 34.42674 -14.69376 35163 ft 397 kts 231°
2026-05-01 12:26 34.38870 -14.74214 35161 ft 397 kts 231°
2026-05-01 12:26 34.33144 -14.81471 35160 ft 397 kts 231°
2026-05-01 12:27 34.27411 -14.88722 35175 ft 398 kts 231°
2026-05-01 12:28 34.21673 -14.95971 35173 ft 398 kts 231°
2026-05-01 12:29 34.15918 -15.03208 35167 ft 398 kts 231°
2026-05-01 12:29 34.10160 -15.10440 35166 ft 399 kts 230°
2026-05-01 12:30 34.04380 -15.17667 35168 ft 399 kts 231°
2026-05-01 12:31 34.00528 -15.22498 35169 ft 400 kts 230°
2026-05-01 12:31 33.96668 -15.27320 35176 ft 400 kts 230°
2026-05-01 12:32 33.92805 -15.32142 35177 ft 400 kts 230°
2026-05-01 12:32 33.87014 -15.39366 35175 ft 400 kts 230°
2026-05-01 12:33 33.83141 -15.44172 35173 ft 400 kts 230°
2026-05-01 12:33 33.79266 -15.48980 35183 ft 399 kts 230°
2026-05-01 12:34 33.75411 -15.53766 34970 ft 398 kts 230°
2026-05-01 12:34 33.73468 -15.56179 33868 ft 406 kts 230°
2026-05-01 12:34 33.71487 -15.58640 32662 ft 414 kts 230°
2026-05-01 12:35 33.69469 -15.61141 31506 ft 419 kts 230°
2026-05-01 12:35 33.67425 -15.63667 30375 ft 424 kts 230°
2026-05-01 12:35 33.65356 -15.66222 29053 ft 429 kts 229°
2026-05-01 12:35 33.63269 -15.68798 27702 ft 433 kts 229°
2026-05-01 12:36 33.61155 -15.71407 26330 ft 437 kts 229°
2026-05-01 12:36 33.59024 -15.74035 24962 ft 442 kts 229°
2026-05-01 12:36 33.56875 -15.76682 23786 ft 443 kts 228°
2026-05-01 12:36 33.54733 -15.79309 22797 ft 437 kts 227°
2026-05-01 12:37 33.52593 -15.81865 21893 ft 432 kts 227°
2026-05-01 12:37 33.50459 -15.84359 21089 ft 426 kts 226°
2026-05-01 12:37 33.48339 -15.86811 20283 ft 421 kts 226°
2026-05-01 12:37 33.46244 -15.89232 19495 ft 417 kts 226°
2026-05-01 12:38 33.44173 -15.91632 18736 ft 413 kts 226°
2026-05-01 12:38 33.42119 -15.94022 17921 ft 410 kts 226°
2026-05-01 12:38 33.40090 -15.96393 17191 ft 405 kts 226°
2026-05-01 12:38 33.38087 -15.98736 16488 ft 400 kts 226°
2026-05-01 12:39 33.36104 -16.01053 15804 ft 396 kts 226°
2026-05-01 12:39 33.34141 -16.03346 15162 ft 393 kts 226°
2026-05-01 12:39 33.32196 -16.05617 14521 ft 390 kts 226°
2026-05-01 12:39 33.30266 -16.07868 13898 ft 386 kts 226°
2026-05-01 12:40 33.28350 -16.10105 13247 ft 383 kts 226°
2026-05-01 12:40 33.26457 -16.12312 12655 ft 378 kts 226°
2026-05-01 12:40 33.24589 -16.14485 12061 ft 373 kts 226°
2026-05-01 12:40 33.22742 -16.16629 11551 ft 366 kts 226°
2026-05-01 12:41 33.20960 -16.18696 11419 ft 349 kts 226°
2026-05-01 12:41 33.19258 -16.20669 11292 ft 333 kts 226°
2026-05-01 12:41 33.17634 -16.22552 11165 ft 318 kts 226°
2026-05-01 12:41 33.16078 -16.24352 11056 ft 305 kts 226°
2026-05-01 12:42 33.14585 -16.26081 10923 ft 293 kts 226°
2026-05-01 12:42 33.13152 -16.27744 10805 ft 282 kts 226°
2026-05-01 12:42 33.11766 -16.29352 10604 ft 275 kts 226°
2026-05-01 12:42 33.10406 -16.30928 10463 ft 272 kts 225°
2026-05-01 12:43 33.09049 -16.32495 10312 ft 271 kts 225°
2026-05-01 12:43 33.07695 -16.34059 10185 ft 271 kts 225°
2026-05-01 12:43 33.06343 -16.35619 10065 ft 271 kts 225°
2026-05-01 12:43 33.04990 -16.37179 9832 ft 272 kts 225°
2026-05-01 12:44 33.03629 -16.38749 9417 ft 272 kts 225°
2026-05-01 12:44 33.02278 -16.40309 9064 ft 269 kts 225°
2026-05-01 12:44 32.99602 -16.43391 8289 ft 266 kts 225°
2026-05-01 12:45 32.96966 -16.46431 7543 ft 261 kts 225°
2026-05-01 12:45 32.95665 -16.47931 7177 ft 259 kts 224°
2026-05-01 12:45 32.94376 -16.49419 6821 ft 257 kts 224°
2026-05-01 12:46 32.93098 -16.50892 6455 ft 255 kts 224°
2026-05-01 12:46 32.91882 -16.52259 6102 ft 252 kts 223°
2026-05-01 12:46 32.90591 -16.53649 5754 ft 248 kts 222°
2026-05-01 12:46 32.89312 -16.55004 5409 ft 245 kts 222°
2026-05-01 12:47 32.88043 -16.56342 5070 ft 242 kts 222°
2026-05-01 12:47 32.86795 -16.57660 4728 ft 239 kts 222°
2026-05-01 12:47 32.85567 -16.58966 4394 ft 235 kts 222°
2026-05-01 12:47 32.84376 -16.60287 4065 ft 232 kts 224°
2026-05-01 12:48 32.83233 -16.61622 3745 ft 230 kts 225°
2026-05-01 12:48 32.82107 -16.62956 3424 ft 228 kts 225°
2026-05-01 12:48 32.81365 -16.63834 3212 ft 227 kts 225°
2026-05-01 12:48 32.79875 -16.65592 2785 ft 225 kts 225°
2026-05-01 12:49 32.79141 -16.66457 2575 ft 224 kts 225°
2026-05-01 12:49 32.78040 -16.67758 2258 ft 223 kts 225°
2026-05-01 12:49 32.76944 -16.69051 1949 ft 222 kts 225°
2026-05-01 12:49 32.75852 -16.70337 1652 ft 219 kts 225°
2026-05-01 12:50 32.74782 -16.71592 1401 ft 214 kts 224°
2026-05-01 12:50 32.73752 -16.72797 1273 ft 198 kts 225°
2026-05-01 12:50 32.72853 -16.73887 1159 ft 170 kts 225°
2026-05-01 12:50 32.72024 -16.74872 658 ft 168 kts 223°
2026-05-01 12:51 32.71212 -16.75791 382 ft 154 kts 222°
2026-05-01 12:51 32.70458 -16.76671 239 ft 150 kts 221°
2026-05-01 12:51 32.69358 -16.77937 162 ft 27 kts 228°
2026-05-01 12:52 32.69314 -16.77951 162 ft 0 kts 140°
2026-05-01 12:52 32.69308 -16.77946 162 ft 0 kts 140°
2026-05-01 12:52 32.69307 -16.77944 162 ft 3 kts 140°
2026-05-01 12:53 32.69310 -16.77829 168 ft 15 kts 53°
2026-05-01 12:53 32.69387 -16.77738 167 ft 15 kts 44°
2026-05-01 12:53 32.69413 -16.77708 169 ft 1 kts 48°
2026-05-01 12:54 32.69387 -16.77682 169 ft 11 kts 203°
2026-05-01 12:54 32.69369 -16.77672 171 ft 0 kts 137°
2026-05-01 12:54 32.69368 -16.77671 171 ft 0 kts 139°
2026-05-01 12:55 32.69360 -16.77663 173 ft 0 kts 138°